[[{"header":{"parameterUnit":"m.s-1","parameterCategory":1,"la1":30.2991,"la2":30.254,"lo1":-89.0895,"lo2":-89.0444,"dy":0.0017,"dx":0.0017,"nx":28,"ny":28,"refTime":"2025-07-05T03:00:00:Z","depth":0,"parameterNumber":2,"parameterNumberName":"U-component_of_WINDS"},"data":[0,0,0,0,0,0,0,0,0,0,0,0,0,0,0,0,0,0,0,0,0,0,0,0,0,0,0,0,0,0,0,0,0,0,0,0,0,0,0,0,0,0,0,0,0,0,0,0,0,0,0,0,0,0,0,0,0,0,-1.3594,-1.3593,0,-1.3549,-1.3549,-1.3548,-1.3493,-1.3492,-1.3491,-1.349,-1.3443,-1.3442,-1.3442,0,0,0,0,0,0,0,0,0,0,0,0,0,-1.3629,-1.3629,-1.3594,-1.3593,-1.3593,-1.3549,-1.3549,-1.3548,-1.3493,-1.3492,-1.3491,-1.349,-1.3443,-1.3442,-1.3442,0,0,0,0,0,0,0,0,0,0,0,0,0,-1.3602,-1.3629,-1.3594,-1.356,-1.3556,-1.3549,-1.3549,-1.3548,-1.3493,-1.3492,-1.349,-1.3489,-1.3443,-1.3442,-1.3442,-1.3464,0,0,-1.344,-1.344,0,0,0,0,0,0,0,0,-1.3604,-1.3601,-1.3565,-1.3562,-1.3558,-1.3525,-1.3544,-1.352,-1.3493,-1.3517,-1.349,-1.3488,-1.3471,-1.3468,-1.3463,-1.3462,-1.346,-1.344,-1.3439,-1.3439,-1.3439,0,0,0,0,0,0,0,-1.3606,-1.3603,-1.3576,-1.3565,-1.3561,-1.3546,-1.3541,-1.3539,-1.3502,-1.3515,-1.3511,-1.3506,-1.3469,-1.3463,-1.3461,-1.3459,-1.344,-1.3439,-1.3439,-1.3439,-1.3475,-1.3476,0,0,0,0,0,0,-1.3613,-1.3605,-1.3578,-1.3575,-1.3578,-1.3547,-1.3541,-1.3537,-1.3502,-1.3495,-1.3507,-1.3504,-1.3465,-1.3462,-1.3459,-1.3483,-1.3439,-1.3438,-1.3438,-1.3473,-1.3475,-1.3477,0,0,0,0,0,0,-1.3614,-1.3611,-1.3579,-1.3589,-1.3583,-1.3548,-1.3544,-1.3537,-1.3531,-1.3496,-1.3489,-1.3509,-1.3464,-1.346,-1.3463,-1.3481,-1.3438,-1.3438,-1.3472,-1.3474,-1.3476,-1.3532,0,0,0,0,0,0,-1.3615,-1.3612,-1.3621,-1.3589,-1.3583,-1.3585,-1.3545,-1.3537,-1.3531,-1.3525,-1.3496,-1.3489,-1.3463,-1.3465,-1.3463,-1.3479,-1.3437,-1.347,-1.3473,-1.3475,-1.3529,-1.3536,-1.3542,0,0,0,0,0,-1.3617,-1.3638,-1.3621,-1.3618,-1.3593,-1.3586,-1.3583,-1.3552,-1.3532,-1.354,-1.3518,-1.349,-1.3479,-1.3466,-1.3463,-1.348,-1.3469,-1.3472,-1.3475,-1.3526,-1.3535,-1.3542,0,0,0,0,0,0,-1.3672,-1.3633,-1.3614,-1.3626,-1.361,-1.3577,-1.3586,-1.3562,-1.3551,-1.3547,-1.3509,-1.3502,-1.351,-1.3495,-1.348,-1.3499,-1.347,-1.3473,-1.3509,-1.3518,-1.3524,-1.3528,-1.3437,0,0,0,0,0,-1.3685,-1.3683,-1.3649,-1.3663,-1.3656,-1.3623,-1.3618,-1.3596,-1.3578,-1.3571,-1.3548,-1.3531,-1.3523,-1.3519,-1.3511,-1.3526,-1.3518,-1.3536,-1.3543,-1.3548,-1.3551,-1.3558,-1.3566,-1.3487,-1.3486,-1.3486,0,0,-1.3713,-1.3692,-1.3693,-1.3673,-1.3658,-1.3657,-1.3617,-1.3617,-1.3616,-1.357,-1.3573,-1.3555,-1.3534,-1.3543,-1.3546,-1.3531,-1.3571,-1.3552,-1.3557,-1.3557,-1.3562,-1.357,-1.3576,-1.3489,-1.3488,-1.3488,0,0,-1.3764,-1.3747,-1.3757,-1.3742,-1.372,-1.3698,-1.37,-1.3671,-1.3658,-1.366,-1.3626,-1.3623,-1.3611,-1.3597,-1.3588,-1.3632,-1.3607,-1.363,-1.3666,-1.3673,-1.368,-1.3685,-1.3702,-1.3708,-1.3633,-1.3633,-1.3634,0,-1.3801,-1.3798,-1.3765,-1.3767,-1.3759,-1.3718,-1.3728,-1.3715,-1.3691,-1.3687,-1.3669,-1.3654,-1.3636,-1.3642,-1.3653,-1.3647,-1.3648,-1.3634,-1.3682,-1.3687,-1.3691,-1.3706,-1.3713,-1.3637,-1.3636,-1.3636,-1.3636,0,-1.3845,-1.3844,-1.3854,-1.3833,-1.3826,-1.3832,-1.3799,-1.3796,-1.3774,-1.3753,-1.3755,-1.3733,-1.3719,-1.3718,-1.3696,-1.3721,-1.3712,-1.3689,-1.3659,-1.3702,-1.3716,-1.3722,-1.3641,-1.364,-1.3639,-1.3638,0,0,-1.393,-1.389,-1.3894,-1.3884,-1.3856,-1.3854,-1.3858,-1.3845,-1.3843,-1.3827,-1.383,-1.382,-1.3799,-1.3789,-1.3765,-1.3771,-1.3809,-1.3747,-1.3746,-1.376,-1.3834,-1.3853,-1.386,-1.3791,-1.3792,-1.3793,-1.3837,0,-1.3976,-1.3981,-1.3951,-1.3964,-1.3962,-1.3922,-1.3925,-1.3908,-1.3889,-1.3884,-1.3862,-1.3856,-1.3828,-1.3822,-1.3826,-1.3803,-1.3823,-1.3799,-1.3793,-1.3793,-1.3801,-1.3867,-1.3887,-1.3929,-1.3842,-1.3843,-1.3843,0,-1.4031,-1.4019,-1.4032,-1.4003,-1.4001,-1.4005,-1.399,-1.3986,-1.3966,-1.3951,-1.394,-1.3913,-1.3914,-1.3884,-1.3885,-1.387,-1.3865,-1.3853,-1.3854,-1.3853,-1.3822,-1.3869,-1.3942,-1.3949,-1.3851,-1.385,-1.385,0,-1.4092,-1.4079,-1.4085,-1.4078,-1.4044,-1.4048,-1.4034,-1.4012,-1.4006,-1.3993,-1.3989,-1.3976,-1.3969,-1.3959,-1.3929,-1.391,-1.3933,-1.3901,-1.3921,-1.3922,-1.3929,-1.3929,-1.4003,-1.3924,-1.3924,-1.3924,-1.3924,0,-1.4147,-1.4157,-1.4113,-1.4117,-1.4126,-1.409,-1.4101,-1.4083,-1.4064,-1.4063,-1.4027,-1.4027,-1.3987,-1.3982,-1.3958,-1.3963,-1.396,-1.3948,-1.3942,-1.3952,-1.3953,-1.3949,-1.3945,-1.3926,-1.3925,-1.3925,-1.3925,0,-1.4219,-1.4189,-1.4193,-1.4161,-1.4153,-1.4162,-1.4134,-1.4136,-1.4114,-1.4114,-1.4112,-1.4077,-1.407,-1.4038,-1.4023,-1.4007,-1.402,-1.4007,-1.4027,-1.4023,-1.4045,-1.4044,-1.412,-1.4128,-1.4043,-1.4044,-1.4045,0,-1.4256,-1.4263,-1.4232,-1.4229,-1.4217,-1.4213,-1.4206,-1.4171,-1.4166,-1.4143,-1.4148,-1.4138,-1.4128,-1.4118,-1.4091,-1.4079,-1.4066,-1.4094,-1.4064,-1.4074,-1.4068,-1.4068,-1.4069,-1.41,-1.4101,-1.4102,-1.4103,0,-1.4326,-1.4312,-1.4304,-1.4292,-1.4285,-1.4274,-1.426,-1.4259,-1.422,-1.4216,-1.4209,-1.4201,-1.4186,-1.4176,-1.416,-1.4144,-1.4118,-1.4112,-1.4116,-1.4127,-1.4139,-1.4134,-1.4045,-1.4111,-1.411,-1.411,-1.4109,-1.4109,-1.4382,-1.4387,-1.4365,-1.4358,-1.4344,-1.4332,-1.4332,-1.431,-1.4304,-1.4289,-1.4268,-1.4263,-1.4242,-1.4217,-1.4204,-1.42,-1.4184,-1.419,-1.4192,-1.4194,-1.4199,-1.4139,-1.4196,-1.4196,-1.4196,-1.4196,-1.4195,0,-1.4452,-1.4436,-1.443,-1.4412,-1.4406,-1.4381,-1.4364,-1.4361,-1.4357,-1.434,-1.4331,-1.4322,-1.4312,-1.4285,-1.4272,-1.4274,-1.4261,-1.4272,-1.4272,-1.4269,-1.4213,-1.4211,-1.4282,-1.4282,-1.4282,-1.4282,-1.4282,-1.4282,-1.4487,-1.4493,-1.4475,-1.4473,-1.4457,-1.4453,-1.4445,-1.4434,-1.442,-1.4412,-1.4403,-1.4386,-1.4364,-1.4349,-1.4339,-1.4331,-1.4329,-1.4344,-1.4332,-1.4281,-1.4273,-1.4265,-1.4263,-1.4343,-1.4343,-1.4387,-1.4388,-1.4388]},{"header":{"parameterUnit":"m.s-1","parameterCategory":1,"la1":30.2991,"la2":30.254,"lo1":-89.0895,"lo2":-89.0444,"dy":0.0017,"dx":0.0017,"nx":28,"ny":28,"refTime":"2025-07-05T03:00:00:Z","depth":0,"parameterNumber":3,"parameterNumberName":"V-component_of_WINDS"},"data":[0,0,0,0,0,0,0,0,0,0,0,0,0,0,0,0,0,0,0,0,0,0,0,0,0,0,0,0,0,0,0,0,0,0,0,0,0,0,0,0,0,0,0,0,0,0,0,0,0,0,0,0,0,0,0,0,0,0,-0.7454,-0.7455,0,-0.7543,-0.7544,-0.7545,-0.7565,-0.7565,-0.7564,-0.7564,-0.7652,-0.7655,-0.7658,0,0,0,0,0,0,0,0,0,0,0,0,0,-0.7298,-0.73,-0.7454,-0.7455,-0.7456,-0.7543,-0.7544,-0.7545,-0.7566,-0.7565,-0.7564,-0.7563,-0.7651,-0.7654,-0.7658,0,0,0,0,0,0,0,0,0,0,0,0,0,-0.7374,-0.7301,-0.7453,-0.7477,-0.748,-0.7542,-0.7544,-0.7545,-0.7566,-0.7565,-0.7564,-0.7563,-0.765,-0.7654,-0.7658,-0.7704,0,0,-0.7672,-0.7674,0,0,0,0,0,0,0,0,-0.737,-0.738,-0.7472,-0.7475,-0.7479,-0.7542,-0.7521,-0.7598,-0.7566,-0.7533,-0.7564,-0.7563,-0.7616,-0.7623,-0.7642,-0.7708,-0.7712,-0.7672,-0.7675,-0.7677,-0.7678,0,0,0,0,0,0,0,-0.7364,-0.7376,-0.7489,-0.7473,-0.7477,-0.7481,-0.7491,-0.7536,-0.7578,-0.7536,-0.7537,-0.7548,-0.7618,-0.7637,-0.7644,-0.7713,-0.7672,-0.7676,-0.7679,-0.768,-0.782,-0.7821,0,0,0,0,0,0,-0.7355,-0.7371,-0.7486,-0.7491,-0.7421,-0.7485,-0.7496,-0.7523,-0.7578,-0.7586,-0.7549,-0.7548,-0.763,-0.7639,-0.7647,-0.7704,-0.7677,-0.7681,-0.7683,-0.7819,-0.782,-0.7822,0,0,0,0,0,0,-0.7352,-0.7365,-0.7482,-0.7432,-0.7447,-0.7489,-0.7518,-0.7525,-0.7545,-0.7588,-0.7595,-0.7561,-0.763,-0.7641,-0.769,-0.7707,-0.7683,-0.7687,-0.7818,-0.7819,-0.7821,-0.7818,0,0,0,0,0,0,-0.7347,-0.7364,-0.7383,-0.7432,-0.745,-0.7524,-0.7519,-0.7527,-0.7553,-0.7553,-0.7602,-0.7609,-0.763,-0.7683,-0.7694,-0.7713,-0.769,-0.7816,-0.7818,-0.782,-0.7817,-0.7819,-0.7821,0,0,0,0,0,-0.7342,-0.7377,-0.7383,-0.7397,-0.7474,-0.7525,-0.7535,-0.756,-0.7554,-0.7572,-0.76,-0.7607,-0.7703,-0.7688,-0.77,-0.7721,-0.7815,-0.7818,-0.782,-0.7816,-0.7819,-0.7821,0,0,0,0,0,0,-0.7328,-0.7384,-0.7392,-0.7445,-0.748,-0.7529,-0.7553,-0.7563,-0.76,-0.7599,-0.7627,-0.7638,-0.7685,-0.7707,-0.7689,-0.7767,-0.7759,-0.7764,-0.7751,-0.7755,-0.7757,-0.7751,-0.7694,0,0,0,0,0,-0.7331,-0.7369,-0.7416,-0.7458,-0.7476,-0.7511,-0.7535,-0.7551,-0.7588,-0.7603,-0.7634,-0.7669,-0.7707,-0.7732,-0.7769,-0.7819,-0.783,-0.784,-0.7842,-0.7844,-0.7848,-0.7876,-0.7881,-0.783,-0.783,-0.7829,0,0,-0.7338,-0.7374,-0.7396,-0.7457,-0.7486,-0.7524,-0.7524,-0.7564,-0.7592,-0.7609,-0.7657,-0.7681,-0.7722,-0.7772,-0.7795,-0.7792,-0.7864,-0.7847,-0.7848,-0.7852,-0.7879,-0.7884,-0.7888,-0.7831,-0.7831,-0.7831,0,0,-0.737,-0.7401,-0.744,-0.747,-0.7514,-0.7538,-0.7547,-0.7594,-0.7611,-0.766,-0.7673,-0.7706,-0.7771,-0.78,-0.7823,-0.7865,-0.7874,-0.7876,-0.789,-0.7917,-0.7921,-0.7924,-0.794,-0.7945,-0.788,-0.788,-0.788,0,-0.7373,-0.7432,-0.7458,-0.7498,-0.7524,-0.7542,-0.7581,-0.7608,-0.7662,-0.7679,-0.7675,-0.7757,-0.7786,-0.7842,-0.7853,-0.7871,-0.7882,-0.7872,-0.7918,-0.7922,-0.7926,-0.7941,-0.7947,-0.7881,-0.7881,-0.7881,-0.7881,0,-0.7434,-0.7474,-0.75,-0.7553,-0.7582,-0.7621,-0.7652,-0.7677,-0.769,-0.7714,-0.7763,-0.7798,-0.7843,-0.7857,-0.787,-0.7915,-0.7912,-0.7913,-0.7905,-0.7931,-0.7945,-0.7951,-0.7881,-0.7881,-0.7881,-0.7881,0,0,-0.7461,-0.7528,-0.7537,-0.7561,-0.7611,-0.7643,-0.7682,-0.7727,-0.7748,-0.7785,-0.7818,-0.7872,-0.7873,-0.7899,-0.7915,-0.7939,-0.797,-0.7936,-0.7938,-0.7942,-0.8023,-0.8023,-0.8029,-0.7975,-0.7977,-0.7978,-0.8019,0,-0.75,-0.7573,-0.7597,-0.7656,-0.7694,-0.771,-0.7744,-0.7778,-0.7801,-0.7835,-0.7859,-0.7897,-0.7895,-0.7911,-0.7935,-0.7961,-0.7987,-0.7959,-0.8007,-0.8008,-0.7997,-0.8037,-0.8037,-0.8075,-0.8025,-0.8026,-0.8027,0,-0.7556,-0.7594,-0.7658,-0.7703,-0.772,-0.7751,-0.7793,-0.7826,-0.7864,-0.7879,-0.7908,-0.7922,-0.7962,-0.7951,-0.8008,-0.7988,-0.8008,-0.8024,-0.8026,-0.8032,-0.802,-0.8044,-0.8088,-0.8093,-0.8036,-0.8035,-0.8035,0,-0.757,-0.7637,-0.7684,-0.7704,-0.7758,-0.778,-0.7803,-0.784,-0.7865,-0.7902,-0.7919,-0.7959,-0.7982,-0.8012,-0.8036,-0.8026,-0.809,-0.8081,-0.8103,-0.8102,-0.8117,-0.8116,-0.8164,-0.8128,-0.8128,-0.8128,-0.8128,0,-0.7612,-0.765,-0.7692,-0.7721,-0.7764,-0.779,-0.7832,-0.7856,-0.7889,-0.7922,-0.7938,-0.7968,-0.7998,-0.8032,-0.8051,-0.8094,-0.8104,-0.8116,-0.8121,-0.8116,-0.8114,-0.813,-0.8128,-0.813,-0.8129,-0.8129,-0.8129,0,-0.7636,-0.7665,-0.7717,-0.7764,-0.7777,-0.7807,-0.7846,-0.7874,-0.7897,-0.7938,-0.795,-0.7985,-0.8026,-0.8053,-0.8104,-0.8117,-0.8164,-0.8168,-0.8152,-0.8154,-0.8175,-0.8173,-0.8236,-0.8246,-0.8203,-0.8203,-0.8204,0,-0.7661,-0.7691,-0.7741,-0.7765,-0.7789,-0.7827,-0.7853,-0.788,-0.7906,-0.7951,-0.7974,-0.8016,-0.8051,-0.8115,-0.8145,-0.8184,-0.8189,-0.8209,-0.8195,-0.8189,-0.819,-0.8188,-0.8192,-0.8211,-0.8211,-0.8212,-0.8212,0,-0.7703,-0.7716,-0.7753,-0.7796,-0.7827,-0.7861,-0.7896,-0.7914,-0.7946,-0.7975,-0.8018,-0.8045,-0.8098,-0.8139,-0.8181,-0.8204,-0.8213,-0.8216,-0.8223,-0.8218,-0.8208,-0.8214,-0.8159,-0.8215,-0.8214,-0.8214,-0.8214,-0.8214,-0.7729,-0.7756,-0.7796,-0.7837,-0.7866,-0.7898,-0.7927,-0.7953,-0.7989,-0.8036,-0.8049,-0.8093,-0.8129,-0.8187,-0.821,-0.8244,-0.8242,-0.8252,-0.8255,-0.8258,-0.8258,-0.8202,-0.8252,-0.8252,-0.8252,-0.8252,-0.8252,0,-0.7772,-0.7798,-0.7836,-0.7884,-0.7916,-0.7923,-0.7961,-0.7987,-0.8026,-0.806,-0.8095,-0.8143,-0.8183,-0.8215,-0.8256,-0.8277,-0.8283,-0.8287,-0.8286,-0.8291,-0.8257,-0.8247,-0.8282,-0.8282,-0.8282,-0.8282,-0.8282,-0.8282,-0.7798,-0.7845,-0.7863,-0.7924,-0.795,-0.7994,-0.8015,-0.8044,-0.8072,-0.8125,-0.8159,-0.818,-0.8213,-0.8257,-0.8293,-0.8302,-0.8316,-0.832,-0.8329,-0.8297,-0.8294,-0.829,-0.8281,-0.8323,-0.8323,-0.836,-0.8361,-0.8361]}]]